User: anonymous   Login
Location: Melbourne
(37.8170°S, 144.9670°E)
Time: 15:00:52
(UTC+10:00)
Language:

Aureole 2 Rocket - Orbit

View from above orbital plane
View from above orbital plane
View from above satellite
View from above satellite

Ground track
Ground track

The orbit data is extracted from the following two-line orbital elements,

1 07004U 73107B   15184.90818785  .00008017  00000-0  17206-3 0  9999
2 07004 073.9438 153.1771 0247212 204.2408 220.5032 15.18450314127983
Epoch (UTC): 03 July 2015 21:47:47
Eccentricity: 0.0247212
inclination: 73.9438°
perigee height: 340 km
apogee height: 681 km
right ascension of ascending node: 153.1771°
argument of perigee: 204.2408°
revolutions per day: 15.18450314
mean anomaly at epoch: 220.5032°
orbit number at epoch: 12798

The dashed part of the orbit path shows where the satellite is in the earth's shadow,  

DLR